• In Deutschland
  • Länderverzeichnis
  • Für 7 Tage
  • Wassertemperatur
  • Satellitenkarten
  • Wetterkarte
  • Widgets
  • user-avatar
    Anmelden

    Stündliche Wetter Lüdenscheid

    Heute, 21 Februar, Mittwoch

    Zeit Temperatur Niederschläge Wind Luftdruck Luftfeuchtigkeit
    00:00 -4°C° 0 mm 2 m/S 728 mmHg 81%
    01:00 -5°C° 0 mm 2 m/S 729 mmHg 82%
    02:00 -5°C° 0 mm 2 m/S 729 mmHg 82%
    03:00 -5°C° 0 mm 2 m/S 729 mmHg 83%
    04:00 -3°C° 0 mm 1 m/S 729 mmHg 83%
    05:00 -5°C° 0 mm 2 m/S 729 mmHg 83%
    06:00 -5°C° 0 mm 2 m/S 729 mmHg 83%
    07:00 -5°C° 0 mm 2 m/S 730 mmHg 85%
    08:00 -4°C° 0 mm 2 m/S 730 mmHg 79%
    09:00 -3°C° 0 mm 2 m/S 730 mmHg 73%
    10:00 -2°C° 0 mm 2 m/S 730 mmHg 68%
    11:00 -1°C° 0 mm 3 m/S 730 mmHg 63%
    12:00 0°C° 0 mm 3 m/S 730 mmHg 58%
    13:00 +2°C° 0 mm 2 m/S 730 mmHg 54%
    14:00 +1°C° 0 mm 3 m/S 730 mmHg 54%
    15:00 +1°C° 0 mm 3 m/S 730 mmHg 55%
    16:00 +1°C° 0 mm 3 m/S 729 mmHg 55%
    17:00 0°C° 0 mm 3 m/S 729 mmHg 62%
    18:00 -2°C° 0 mm 3 m/S 729 mmHg 68%
    19:00 -4°C° 0 mm 3 m/S 729 mmHg 74%
    20:00 -4°C° 0 mm 3 m/S 729 mmHg 75%
    21:00 -5°C° 0 mm 3 m/S 730 mmHg 76%
    22:00 -5°C° 0 mm 3 m/S 730 mmHg 76%
    23:00 -5°C° 0 mm 3 m/S 730 mmHg 76%

    Morgen, 22 Februar, Donnerstag

    Zeit Temperatur Niederschläge Wind Luftdruck Luftfeuchtigkeit
    00:00 -5°C° 0 mm 3 m/S 730 mmHg 75%
    01:00 -5°C° 0 mm 3 m/S 730 mmHg 74%
    02:00 -5°C° 0 mm 3 m/S 730 mmHg 74%
    03:00 -5°C° 0 mm 3 m/S 730 mmHg 74%
    04:00 -6°C° 0 mm 3 m/S 730 mmHg 73%
    05:00 -6°C° 0 mm 3 m/S 730 mmHg 73%
    06:00 -6°C° 0 mm 3 m/S 730 mmHg 72%
    07:00 -6°C° 0 mm 3 m/S 730 mmHg 72%
    08:00 -5°C° 0 mm 4 m/S 730 mmHg 66%
    09:00 -4°C° 0 mm 4 m/S 730 mmHg 61%
    10:00 -3°C° 0 mm 4 m/S 730 mmHg 56%
    11:00 -2°C° 0 mm 5 m/S 730 mmHg 53%
    12:00 -2°C° 0 mm 5 m/S 730 mmHg 50%
    13:00 -1°C° 0 mm 5 m/S 730 mmHg 47%
    14:00 -1°C° 0 mm 5 m/S 730 mmHg 48%
    15:00 -1°C° 0 mm 5 m/S 729 mmHg 48%
    16:00 -1°C° 0 mm 5 m/S 729 mmHg 49%
    17:00 -2°C° 0 mm 4 m/S 729 mmHg 54%
    18:00 -3°C° 0 mm 4 m/S 729 mmHg 60%
    19:00 -4°C° 0 mm 4 m/S 729 mmHg 65%
    20:00 -4°C° 0 mm 4 m/S 729 mmHg 67%
    21:00 -5°C° 0 mm 3 m/S 729 mmHg 68%
    22:00 -5°C° 0 mm 3 m/S 729 mmHg 70%
    23:00 -5°C° 0 mm 3 m/S 729 mmHg 70%

    übermorgen, 23 Februar, Freitag

    Zeit Temperatur Niederschläge Wind Luftdruck Luftfeuchtigkeit
    00:00 -6°C° 0 mm 3 m/S 729 mmHg 70%
    01:00 -6°C° 0 mm 3 m/S 729 mmHg 70%
    02:00 -6°C° 0 mm 3 m/S 729 mmHg 68%
    03:00 -6°C° 0 mm 3 m/S 729 mmHg 67%
    04:00 -6°C° 0 mm 3 m/S 729 mmHg 65%
    05:00 -7°C° 0 mm 4 m/S 729 mmHg 65%
    06:00 -8°C° 0 mm 4 m/S 728 mmHg 64%
    07:00 -8°C° 0 mm 4 m/S 728 mmHg 63%
    08:00 -7°C° 0 mm 4 m/S 729 mmHg 57%
    09:00 -6°C° 0 mm 5 m/S 729 mmHg 51%
    10:00 -6°C° 0 mm 5 m/S 729 mmHg 46%
    11:00 -5°C° 0 mm 5 m/S 729 mmHg 40%
    12:00 -4°C° 0 mm 5 m/S 729 mmHg 34%
    13:00 -2°C° 0 mm 5 m/S 729 mmHg 28%
    14:00 -1°C° 0 mm 5 m/S 729 mmHg 28%
    15:00 -1°C° 0 mm 5 m/S 728 mmHg 28%
    16:00 -1°C° 0 mm 5 m/S 728 mmHg 28%
    17:00 -2°C° 0 mm 5 m/S 728 mmHg 31%
    18:00 -5°C° 0 mm 5 m/S 728 mmHg 34%
    19:00 -6°C° 0 mm 5 m/S 728 mmHg 37%
    20:00 -6°C° 0 mm 5 m/S 728 mmHg 38%
    21:00 -6°C° 0 mm 5 m/S 729 mmHg 38%
    22:00 -7°C° 0 mm 5 m/S 729 mmHg 39%
    23:00 -7°C° 0 mm 5 m/S 729 mmHg 38%

    24 Februar, Samstag

    Zeit Temperatur Niederschläge Wind Luftdruck Luftfeuchtigkeit
    00:00 -7°C° 0 mm 5 m/S 729 mmHg 38%
    01:00 -7°C° 0 mm 5 m/S 729 mmHg 37%
    02:00 -7°C° 0 mm 5 m/S 729 mmHg 36%
    03:00 -7°C° 0 mm 5 m/S 729 mmHg 36%
    04:00 -7°C° 0 mm 5 m/S 729 mmHg 35%
    05:00 -7°C° 0 mm 5 m/S 729 mmHg 36%
    06:00 -7°C° 0 mm 5 m/S 729 mmHg 37%
    07:00 -7°C° 0 mm 5 m/S 729 mmHg 38%
    08:00 -6°C° 0 mm 6 m/S 729 mmHg 38%
    09:00 -5°C° 0 mm 6 m/S 730 mmHg 38%
    10:00 -4°C° 0 mm 7 m/S 730 mmHg 37%
    11:00 -3°C° 0 mm 7 m/S 730 mmHg 37%
    12:00 -2°C° 0 mm 7 m/S 730 mmHg 37%
    13:00 -1°C° 0 mm 7 m/S 730 mmHg 37%
    14:00 -2°C° 0 mm 7 m/S 730 mmHg 39%
    15:00 -2°C° 0 mm 7 m/S 730 mmHg 40%
    16:00 -2°C° 0 mm 7 m/S 730 mmHg 42%
    17:00 -3°C° 0 mm 6 m/S 730 mmHg 42%
    18:00 -4°C° 0 mm 6 m/S 730 mmHg 43%
    19:00 -6°C° 0 mm 6 m/S 730 mmHg 43%
    20:00 -6°C° 0 mm 6 m/S 731 mmHg 42%
    21:00 -8°C° 0 mm 6 m/S 731 mmHg 42%
    22:00 -8°C° 0 mm 6 m/S 731 mmHg 41%
    23:00 -8°C° 0 mm 6 m/S 731 mmHg 41%

    25 Februar, Sonntag

    Zeit Temperatur Niederschläge Wind Luftdruck Luftfeuchtigkeit
    00:00 -9°C° 0 mm 6 m/S 731 mmHg 41%
    01:00 -9°C° 0 mm 6 m/S 731 mmHg 42%
    02:00 -8°C° 0 mm 5 m/S 731 mmHg 41%
    03:00 -10°C° 0 mm 5 m/S 731 mmHg 41%
    04:00 -10°C° 0 mm 5 m/S 731 mmHg 41%
    05:00 -10°C° 0 mm 5 m/S 731 mmHg 40%
    06:00 -11°C° 0 mm 5 m/S 732 mmHg 39%
    07:00 -11°C° 0 mm 5 m/S 732 mmHg 38%
    08:00 -10°C° 0 mm 5 m/S 732 mmHg 36%
    09:00 -10°C° 0 mm 5 m/S 732 mmHg 34%
    10:00 -10°C° 0 mm 6 m/S 733 mmHg 32%
    11:00 -9°C° 0 mm 6 m/S 733 mmHg 30%
    12:00 -8°C° 0 mm 6 m/S 733 mmHg 27%
    13:00 -6°C° 0 mm 5 m/S 733 mmHg 25%
    14:00 -6°C° 0 mm 5 m/S 732 mmHg 25%
    15:00 -6°C° 0 mm 5 m/S 732 mmHg 25%
    16:00 -6°C° 0 mm 5 m/S 732 mmHg 25%
    17:00 -7°C° 0 mm 5 m/S 732 mmHg 28%
    18:00 -8°C° 0 mm 5 m/S 732 mmHg 31%
    19:00 -8°C° 0 mm 4 m/S 732 mmHg 34%
    20:00 -9°C° 0 mm 4 m/S 732 mmHg 36%
    21:00 -9°C° 0 mm 4 m/S 733 mmHg 39%
    22:00 -9°C° 0 mm 4 m/S 733 mmHg 41%
    23:00 -9°C° 0 mm 4 m/S 733 mmHg 42%

    26 Februar, Montag

    Zeit Temperatur Niederschläge Wind Luftdruck Luftfeuchtigkeit
    00:00 -9°C° 0 mm 4 m/S 733 mmHg 44%
    01:00 -10°C° 0 mm 4 m/S 733 mmHg 45%
    02:00 -10°C° 0 mm 4 m/S 732 mmHg 46%
    03:00 -10°C° 0 mm 4 m/S 732 mmHg 46%
    04:00 -10°C° 0 mm 4 m/S 732 mmHg 47%
    05:00 -11°C° 0 mm 4 m/S 732 mmHg 47%
    06:00 -11°C° 0 mm 4 m/S 732 mmHg 48%
    07:00 -11°C° 0 mm 4 m/S 732 mmHg 48%
    08:00 -11°C° 0 mm 4 m/S 732 mmHg 46%
    09:00 -11°C° 0 mm 5 m/S 732 mmHg 44%
    10:00 -11°C° 0 mm 5 m/S 732 mmHg 42%
    11:00 -10°C° 0 mm 5 m/S 732 mmHg 39%
    12:00 -8°C° 0 mm 5 m/S 731 mmHg 35%
    13:00 -7°C° 0 mm 5 m/S 731 mmHg 32%
    14:00 -7°C° 0 mm 5 m/S 731 mmHg 31%
    15:00 -7°C° 0 mm 5 m/S 730 mmHg 30%
    16:00 -7°C° 0 mm 5 m/S 730 mmHg 30%
    17:00 -8°C° 0 mm 4 m/S 730 mmHg 32%
    18:00 -8°C° 0 mm 4 m/S 730 mmHg 35%
    19:00 -8°C° 0 mm 3 m/S 729 mmHg 38%
    20:00 -8°C° 0 mm 3 m/S 729 mmHg 39%
    21:00 -9°C° 0 mm 3 m/S 729 mmHg 40%
    22:00 -9°C° 0 mm 3 m/S 729 mmHg 42%
    23:00 -9°C° 0 mm 3 m/S 729 mmHg 43%
    Mehr zeigen